Location: ?????????
(41.2286°N, 23.0068°E)
Time: 09:20:21
(UTC+00:00)

NOSS 3-1 (A) - Pass Details

Date: 08 November 2025
Orbit: 621 x 1586 km, 63.4° (Epoch: 02 December)

Event Time Altitude Azimuth Distance (km) Brightness Sun altitude
Exits shadow 03:19:48 14° 205° (SSW) 1,766 4.7 -20.5°
Maximum altitude 03:23:37 73° 122° (ESE) 731 3.0 -19.8°
Drops below altitude 10° 03:28:55 10° 38° (NE) 2,389 6.0 -18.8°
Sets 03:31:38 0° 37° (NE) 3,465 6.8 -18.3°
